This demonstration page uses our WeatherBlox Daily Observations layout. Learn more.

Left ArrowRight Arrow

39.08367, -84.50855

Hourly Observations for April 8, 2018

Temp ( °F °C ) Dew Point ( °F °C ) Humidity (%) Winds ( mph kmh ) Pressure ( in mb ) Visibility ( mi km ) Precip ( " mm )
12:53 am 00:53 Clear 33 0.6 21 -6.1 61 61 NNW 7 11 30.08 1019 10 16 N/A
1:53 am 01:53 Clear 33 0.6 20 -6.7 58 58 NNW 5 7 30.07 1018 10 16 N/A
2:53 am 02:53 Clear 31 -0.6 21 -6.1 67 67 N 7 11 30.07 1018 10 16 N/A
3:53 am 03:53 Clear 30 -1.1 21 -6.1 69 69 N 5 7 30.08 1019 10 16 N/A
4:53 am 04:53 Clear 29 -1.7 19 -7.2 66 66 N 6 9 30.09 1019 10 16 N/A
5:53 am 05:53 Clear 28 -2.2 17 -8.3 63 63 N 5 7 30.09 1019 10 16 N/A
6:53 am 06:53 Clear 27 -2.8 16 -8.9 63 63 N 6 9 30.11 1020 10 16 N/A
7:53 am 07:53 Sunny 29 -1.7 15 -9.4 56 56 N 6 9 30.13 1020 10 16 N/A
8:53 am 08:53 Sunny 32 undefined 14 -10 47 47 VRB 3 6 30.14 1021 10 16 N/A
9:53 am 09:53 Sunny 35 1.7 15 -9.4 44 44 NE 8 13 30.14 1021 10 16 N/A
10:53 am 10:53 Sunny 37 2.8 17 -8.3 44 44 N 8 13 30.15 1021 10 16 N/A
11:53 am 11:53 Sunny 40 4.4 17 -8.3 40 40 NNW 8 13 30.14 1021 10 16 N/A
12:53 pm 12:53 Sunny 41 5 16 -8.9 36 36 N 8 13 30.12 1020 10 16 N/A
1:53 pm 13:53 Sunny 43 6.1 17 -8.3 35 35 VRB 6 9 30.10 1019 10 16 N/A
2:53 pm 14:53 Sunny 44 6.7 17 -8.3 34 34 NNE 6 9 30.09 1019 10 16 N/A
3:53 pm 15:53 Sunny 43 6.1 14 -10 31 31 ESE 5 7 30.08 1019 10 16 N/A
4:53 pm 16:53 Sunny 44 6.7 13 -10.6 28 28 N N/A 30.06 1018 10 16 N/A
5:53 pm 17:53 Sunny 44 6.7 13 -10.6 28 28 N N/A 30.06 1018 10 16 N/A
6:53 pm 18:53 Mostly Sunny 43 6.1 12 -11.1 28 28 NNE 3 6 30.07 1018 10 16 N/A
7:53 pm 19:53 Mostly Cloudy 42 5.6 14 -10 32 32 NE 5 7 30.05 1018 10 16 N/A
8:53 pm 20:53 Mostly Cloudy 42 5.6 15 -9.4 33 33 ENE 7 11 30.06 1018 10 16 N/A
9:53 pm 21:53 Cloudy 42 5.6 17 -8.3 36 36 ENE 8 13 30.06 1018 10 16 N/A
10:53 pm 22:53 Cloudy 41 5 18 -7.8 39 39 ENE 8 13 30.05 1018 10 16 N/A
11:53 pm 23:53 Cloudy 41 5 21 -6.1 45 45 ENE 6 9 30.04 1017 10 16 N/A

Powered by AerisWeather